sat.trackr.live / text

‹ back to catalog

STARLINK-30409

NORAD 57820 · 2023-138N

PAYLOAD ACTIVE UNKNOWN

§ Identity

Operator
Country
US
Launch date
2023-09-09
Launch site
AFETR
Launch vehicle
Mass (kg)
RCS (m²)

Purposes: comms

External: N2YO · Heavens-Above · Gunter

§ Orbital elements

Epoch: 2026-09-20T13:30:16.044480Z

Period
94.27 min
Inclination
43.0002°
Eccentricity
0.0001187
Mean motion
15.27579640 rev/d
Perigee alt
482.2 km
Apogee alt
483.9 km
Semi-major
6,861.2 km
B*
1.0276e-5
RAAN
213.4488°
Arg perigee
250.6195°
Mean anomaly
109.4529°
Rev number
16,848

§ Raw data

STARLINK-304091 57820U 23138N   26263.56268570  .00000021  00000+0  10276-4 0  99992 57820  43.0002 213.4488 0001187 250.6195 109.4529 15.27579640168481

JSON: /api/v1/satellites/57820 · /tle

For live sub-satellite position, see the globe view (requires WebGL).

§ Visibility from observer

Set your observer location to see the next 7 days of passes ≥ 10°. The values pass through the URL so the page stays shareable.

No JS? Fill the form by hand. The geolocation button needs JavaScript.